{"data":{"norad_id":67181,"epoch":"2026-09-19T19:05:29.095296Z","epoch_age_seconds":139645,"freshness":"FRESH","line1":"1 67181U 25303U   26262.79547564  .00013794  00000+0  50969-3 0  9996","line2":"2 67181  43.0039 294.2873 0001550 265.6051  94.4624 15.27589946 42422","mean_motion":15.27589946,"eccentricity":0.000155,"inclination_deg":43.0039,"raan_deg":294.2873,"arg_perigee_deg":265.6051,"mean_anomaly_deg":94.4624,"bstar":0.00050969,"rev_number":4242,"period_min":94.266134951375,"perigee_km":481.95583507047,"apogee_km":484.0827935279,"semimajor_km":6861.1563142992,"source":"CELESTRAK","updated_at":"2026-09-21T09:00:36.132246Z"}}